Weather History for Tekamah, NE

Change the Weather History Date:

Tuesday, August 13, 2013

  Actual Average Record
Temperature  
Mean Temperature 70 °F -  
Max Temperature 81 °F 84 °F 97 °F (1965)
Min Temperature 59 °F 61 °F 45 °F (1964)
Cooling Degree Days 4    
Growing Degree Days 20 (Base 50)    
Moisture  
Dew Point 58 °F    
Average Humidity 73    
Maximum Humidity 93    
Minimum Humidity 46    
Precipitation  
Precipitation 0.01 in - - ()
Sea Level Pressure  
Sea Level Pressure 30.11 in    
Wind  
Wind Speed 4 mph (North)    
Max Wind Speed 7 mph    
Max Gust Speed -    
Visibility 7 miles    
Events      
Averages and records for this station are not official NWS values.
T = Trace of Precipitation, MM = Missing Value Source: NWS Daily Summary

Daily Weather History Graph

Daily Weather History Graph

Search for Another Location

Airport:

Trip Planner

Search our weather history database for the weather conditions in past years. The results will help you decide how hot, cold, wet, or windy it might be!

Date:

Astronomy

Aug. 13, 2013 Rise Set
Actual Time 6:31 AM CDT 8:27 PM CDT
Civil Twilight 6:01 AM CDT 8:57 PM CDT
Nautical Twilight 5:24 AM CDT 9:33 PM CDT
Astronomical Twilight 4:44 AM CDT 10:13 PM CDT
Moon 1:34 PM CDT (8/13) 11:55 PM CDT (8/13)
Length of Visible Light 14h 55m
Length of Day
13h 55m
Waxing Crescent, 42% of the Moon is Illuminated
Aug 13
Waxing Crescent
Aug 14
First Quarter
Aug 20
Full
Aug 28
Last Quarter
Sep 5
New

Hourly Weather History & Observations

Time (CDT) Temp. Heat Index Dew Point Humidity Pressure Visibility Wind Dir Wind Speed Gust Speed Precip Events Conditions
12:54 AM 64.0 °F - 61.0 °F 90% 30.07 in 5.0 mi NNW 3.5 mph - N/A   Clear
1:54 AM 63.0 °F - 60.1 °F 90% 30.07 in 7.0 mi NNW 3.5 mph - N/A   Clear
2:54 AM 62.1 °F - 59.0 °F 90% 30.07 in 9.0 mi North 5.8 mph - 0.01 in   Clear
3:54 AM 60.1 °F - 57.0 °F 90% 30.09 in 8.0 mi NNW 3.5 mph - N/A   Scattered Clouds
4:54 AM 61.0 °F - 59.0 °F 93% 30.08 in 8.0 mi North 4.6 mph - N/A   Overcast
5:54 AM 59.0 °F - 57.0 °F 93% 30.09 in 6.0 mi NNW 4.6 mph - N/A   Scattered Clouds
6:54 AM 60.1 °F - 57.0 °F 90% 30.10 in 5.0 mi North 5.8 mph - N/A   Partly Cloudy
7:54 AM 60.1 °F - 57.9 °F 93% 30.12 in 4.0 mi NNW 3.5 mph - N/A   Clear
8:54 AM 64.0 °F - 60.1 °F 87% 30.13 in 6.0 mi NNE 4.6 mph - N/A   Clear
9:54 AM 69.1 °F - 61.0 °F 75% 30.15 in 7.0 mi North 4.6 mph - N/A   Clear
10:54 AM 72.0 °F - 59.0 °F 64% 30.16 in 8.0 mi North 5.8 mph - N/A   Clear
11:54 AM 73.9 °F - 59.0 °F 59% 30.16 in 7.0 mi Calm Calm - N/A   Clear
12:54 PM 77.0 °F - 57.0 °F 50% 30.15 in 7.0 mi NNE 5.8 mph - N/A   Clear
1:54 PM 78.1 °F - 55.9 °F 46% 30.14 in 7.0 mi NE 5.8 mph - N/A   Clear
2:54 PM 80.1 °F 80.6 °F 57.9 °F 47% 30.13 in 8.0 mi NNE 4.6 mph - N/A   Clear
3:54 PM 80.1 °F 80.6 °F 57.9 °F 47% 30.11 in 7.0 mi Variable 3.5 mph - N/A   Clear
4:54 PM 79.0 °F - 57.9 °F 48% 30.10 in 7.0 mi NNE 6.9 mph - N/A   Clear
5:54 PM 79.0 °F - 57.0 °F 47% 30.09 in 7.0 mi North 6.9 mph - N/A   Clear
6:54 PM 78.1 °F - 57.9 °F 50% 30.09 in 7.0 mi NNE 5.8 mph - N/A   Clear
7:54 PM 73.9 °F - 61.0 °F 64% 30.10 in 6.0 mi NNE 4.6 mph - N/A   Haze
8:54 PM 68.0 °F - 60.1 °F 76% 30.12 in 7.0 mi North 5.8 mph - N/A   Clear
9:54 PM 64.0 °F - 60.1 °F 87% 30.13 in 7.0 mi North 5.8 mph - N/A   Clear
10:54 PM 60.1 °F - 57.0 °F 90% 30.14 in 6.0 mi Calm Calm - N/A   Clear
11:54 PM 59.0 °F - 55.9 °F 90% 30.15 in 6.0 mi Calm Calm - N/A   Clear